| time (UTC) | temp F | wind direction | speed knots | gust knots | rain 1hr in | rain 24hr in | rain mn in | humidity % | barometer mb |
| 20260505052325 | 56 | 23 | 2.6 | 4.3 | 0.00 | 0.00 | 0.00 | 82 | 1010.3 |
| 20260505051325 | 55 | 162 | 2.6 | 4.3 | 0.00 | 0.00 | 0.00 | 82 | 1010.1 |
| 20260505050322 | 55 | 153 | 2.6 | 2.6 | 0.00 | 0.00 | 0.00 | 82 | 1010.0 |
| 20260505041318 | 57 | 41 | 0.0 | 0.0 | 0.00 | 0.00 | 0.00 | 77 | 1009.7 |
| 20260505040313 | 58 | 213 | 3.5 | 4.3 | 0.00 | 0.00 | 0.00 | 75 | 1009.6 |
| 20260505035311 | 58 | 187 | 0.9 | 1.7 | 0.00 | 0.00 | 0.00 | 73 | 1009.2 |
| 20260505034311 | 59 | 207 | 2.6 | 2.6 | 0.00 | 0.00 | 0.00 | 72 | 1009.1 |
| 20260505033310 | 60 | 193 | 2.6 | 4.3 | 0.00 | 0.00 | 0.00 | 70 | 1008.9 |
| 20260505032310 | 60 | 3 | 3.5 | 4.3 | 0.00 | 0.00 | 0.00 | 69 | 1009.0 |
| 20260505031309 | 60 | 24 | 2.6 | 4.3 | 0.00 | 0.00 | 0.00 | 69 | 1009.0 |
| 20260505030309 | 60 | 58 | 1.7 | 1.7 | 0.00 | 0.00 | 0.00 | 68 | 1008.8 |
| 20260505025308 | 61 | 114 | 2.6 | 4.3 | 0.00 | 0.00 | 0.00 | 67 | 1008.6 |
| 20260505024303 | 62 | 27 | 2.6 | 5.2 | 0.00 | 0.00 | 0.00 | 66 | 1008.8 |
| 20260505023303 | 63 | 13 | 1.7 | 1.7 | 0.00 | 0.00 | 0.00 | 65 | 1008.8 |
| 20260505022304 | 64 | 144 | 1.7 | 1.7 | 0.00 | 0.00 | 0.00 | 63 | 1008.7 |
| 20260505021303 | 65 | 69 | 0.9 | 0.9 | 0.00 | 0.00 | 0.00 | 62 | 1008.6 |
| 20260505020300 | 64 | 146 | 2.6 | 2.6 | 0.00 | 0.00 | 0.00 | 63 | 1008.8 |
| 20260505015254 | 65 | 80 | 0.9 | 2.6 | 0.00 | 0.00 | 0.00 | 63 | 1008.8 |
| 20260505014249 | 65 | 121 | 5.2 | 8.7 | 0.00 | 0.00 | 0.00 | 64 | 1008.8 |
| 20260505013248 | 65 | 338 | 0.9 | 0.9 | 0.00 | 0.00 | 0.00 | 65 | 1009.0 |
| 20260505012243 | 66 | 59 | 0.9 | 0.9 | 0.00 | 0.00 | 0.00 | 65 | 1008.8 |
| 20260505011242 | 67 | 120 | 0.9 | 0.9 | 0.00 | 0.00 | 0.00 | 64 | 1009.0 |
| 20260505010240 | 68 | 242 | 1.7 | 2.6 | 0.00 | 0.00 | 0.00 | 63 | 1009.1 |
| 20260505005240 | 69 | 133 | 2.6 | 2.6 | 0.00 | 0.00 | 0.00 | 62 | 1009.1 |
| 20260505004239 | 69 | 175 | 1.7 | 1.7 | 0.00 | 0.00 | 0.00 | 60 | 1009.1 |
| 20260505003234 | 70 | 42 | 0.0 | 0.9 | 0.00 | 0.00 | 0.00 | 58 | 1009.1 |
| 20260505002233 | 71 | 155 | 2.6 | 2.6 | 0.00 | 0.00 | 0.00 | 53 | 1009.1 |
| 20260505001228 | 71 | 64 | 0.9 | 0.9 | 0.00 | 0.00 | 0.00 | 53 | 1009.2 |
| 20260505000229 | 70 | 44 | 1.7 | 2.6 | 0.00 | 0.00 | 0.00 | 52 | 1009.4 |
| 20260504235227 | 71 | 34 | 0.9 | 1.7 | 0.00 | 0.00 | 0.00 | 52 | 1009.4 |
| 20260504234227 | 71 | 13 | 2.6 | 2.6 | 0.00 | 0.00 | 0.00 | 54 | 1009.4 |
| 20260504233225 | 71 | 189 | 3.5 | 5.2 | 0.00 | 0.00 | 0.00 | 52 | 1009.5 |
| 20260504232225 | 70 | 234 | 4.3 | 5.2 | 0.00 | 0.00 | 0.00 | 53 | 1009.1 |
| 20260504231224 | 71 | 118 | 2.6 | 2.6 | 0.00 | 0.00 | 0.00 | 52 | 1009.5 |
| 20260504230219 | 70 | 30 | 0.9 | 0.9 | 0.00 | 0.00 | 0.00 | 55 | 1009.6 |
| 20260504225219 | 70 | 31 | 0.9 | 1.7 | 0.00 | 0.00 | 0.00 | 53 | 1009.5 |
| 20260504224220 | 70 | 347 | 1.7 | 1.7 | 0.00 | 0.00 | 0.00 | 54 | 1009.4 |
| 20260504223217 | 70 | 216 | 3.5 | 4.3 | 0.00 | 0.00 | 0.00 | 53 | 1009.6 |
| 20260504222217 | 70 | 58 | 0.9 | 1.7 | 0.00 | 0.00 | 0.00 | 55 | 1009.7 |
| 20260504221217 | 70 | 286 | 2.6 | 4.3 | 0.00 | 0.00 | 0.00 | 56 | 1009.6 |
| 20260504220217 | 71 | 26 | 3.5 | 5.2 | 0.00 | 0.00 | 0.00 | 55 | 1009.6 |
| 20260504215217 | 72 | 356 | 2.6 | 5.2 | 0.00 | 0.00 | 0.00 | 55 | 1009.6 |
| 20260504214215 | 73 | 22 | 1.7 | 1.7 | 0.00 | 0.00 | 0.00 | 55 | 1009.6 |
| 20260504213214 | 73 | 23 | 1.7 | 1.7 | 0.00 | 0.00 | 0.00 | 54 | 1009.7 |
| 20260504212213 | 74 | 334 | 1.7 | 1.7 | 0.00 | 0.00 | 0.00 | 52 | 1009.5 |
| 20260504211212 | 77 | 26 | 1.7 | 1.7 | 0.00 | 0.00 | 0.00 | 48 | 1009.8 |
| 20260504210207 | 76 | 34 | 1.7 | 2.6 | 0.00 | 0.00 | 0.00 | 49 | 1009.8 |
| 20260504205201 | 75 | 146 | 2.6 | 2.6 | 0.00 | 0.00 | 0.00 | 55 | 1010.0 |
| 20260504204158 | 73 | 140 | 0.9 | 1.7 | 0.00 | 0.00 | 0.00 | 63 | 1010.0 |
| 20260504203154 | 73 | 176 | 4.3 | 5.2 | 0.00 | 0.00 | 0.00 | 63 | 1009.9 |
| 20260504202151 | 77 | 57 | 0.9 | 1.7 | 0.00 | 0.00 | 0.00 | 55 | 1009.8 |
| 20260504201146 | 77 | 18 | 0.9 | 0.9 | 0.00 | 0.00 | 0.00 | 44 | 1009.9 |
| 20260504200145 | 77 | 126 | 1.7 | 1.7 | 0.00 | 0.00 | 0.00 | 58 | 1010.2 |
| 20260504195143 | 75 | 137 | 0.9 | 1.7 | 0.00 | 0.00 | 0.00 | 56 | 1010.0 |
| 20260504194142 | 75 | 196 | 3.5 | 4.3 | 0.00 | 0.00 | 0.00 | 57 | 1010.0 |
| 20260504193137 | 75 | 162 | 4.3 | 5.2 | 0.00 | 0.00 | 0.00 | 55 | 1010.2 |
| 20260504192132 | 75 | 59 | 0.9 | 0.9 | 0.00 | 0.00 | 0.00 | 53 | 1010.1 |
| 20260504191132 | 71 | 155 | 2.6 | 2.6 | 0.00 | 0.00 | 0.00 | 59 | 1010.0 |
| 20260504190131 | 70 | 175 | 3.5 | 4.3 | 0.00 | 0.00 | 0.00 | 63 | 1010.3 |
| 20260504185130 | 70 | 128 | 1.7 | 1.7 | 0.00 | 0.00 | 0.00 | 59 | 1010.3 |
| 20260504184126 | 70 | 196 | 3.5 | 4.3 | 0.00 | 0.00 | 0.00 | 57 | 1010.1 |
| 20260504183122 | 72 | 187 | 2.6 | 2.6 | 0.00 | 0.00 | 0.00 | 53 | 1010.1 |
| 20260504182122 | 70 | 83 | 2.6 | 2.6 | 0.00 | 0.00 | 0.00 | 55 | 1010.1 |
| 20260504181117 | 71 | 147 | 1.7 | 1.7 | 0.00 | 0.00 | 0.00 | 54 | 1010.1 |
| 20260504180114 | 71 | 41 | 0.9 | 0.9 | 0.00 | 0.00 | 0.00 | 52 | 1010.2 |
| 20260504175114 | 68 | 165 | 2.6 | 2.6 | 0.00 | 0.00 | 0.00 | 60 | 1010.3 |
| 20260504174114 | 66 | 167 | 2.6 | 4.3 | 0.00 | 0.00 | 0.00 | 62 | 1010.4 |
| 20260504173109 | 66 | 341 | 0.0 | 0.0 | 0.00 | 0.00 | 0.00 | 64 | 1010.5 |
| 20260504172107 | 66 | 197 | 1.7 | 1.7 | 0.00 | 0.00 | 0.00 | 64 | 1010.1 |
| 20260504171107 | 65 | 207 | 2.6 | 2.6 | 0.00 | 0.00 | 0.00 | 64 | 1010.2 |
| 20260504170106 | 64 | 128 | 0.9 | 1.7 | 0.00 | 0.00 | 0.00 | 71 | 1010.2 |
| 20260504151038 | 62 | 55 | 0.0 | 0.0 | 0.00 | 0.00 | 0.00 | 69 | 1009.9 |
| 20260504141026 | 55 | 41 | 0.9 | 0.9 | 0.00 | 0.00 | 0.00 | 80 | 1009.5 |
| 20260504081915 | 56 | 23 | 0.9 | 0.9 | 0.00 | 0.00 | 0.00 | 71 | 1008.7 |
| 20260504080914 | 56 | 28 | 0.9 | 0.9 | 0.00 | 0.00 | 0.00 | 72 | 1009.0 |